Regional Weather Roundup
Issued by NWS

Home | Current Version | Previous Version | Graphics & Text | Print | Product List | Glossary On
Versions: 1 2 3 4 5 6 7 8 9 10 11 12 13 14 15 16 17 18 19 20 21 22 23 24 25 26 27 28 29 30 31 32 33 34 35 36 37 38 39 40 41 42 43 44 45 46 47 48 49 50
000
ASUS43 KIND 292309
RWRIN

WEATHER ROUNDUP FOR INDIANA
NATIONAL WEATHER SERVICE INDIANAPOLIS IN
700 PM EDT SAT APR 29 2017

NOTE: "FAIR" INDICATES FEW OR NO CLOUDS BELOW 12,000 FEET WITH NO
SIGNIFICANT WEATHER AND/OR OBSTRUCTIONS TO VISIBILITY.

* - STATION DOES NOT REPORT WEATHER SUCH AS PRECIPITATION OR FOG.

+ - STATION NOT QUALITY CONTROLLED BY THE NATIONAL WEATHER SERVICE.
    USE DATA WITH CAUTION...ESPECIALLY DEWPOINT AND RELATIVE
    HUMIDITY OBSERVATIONS.

INZ001>003-010>013-019-020-300000-
NORTHWEST INDIANA

CITY           SKY/WX    TMP DP  RH WIND       PRES   REMARKS
GARY /AIRPORT/ TSTM      45  43  93 NE22      30.10S
KNOX *+        CLOUDY    52  34  50 E10G20    30.05F
LA PORTE +     CLOUDY    51  47  86 E10       30.09R
MICHIGAN CITY+ CLOUDY    45  45 100 N7        30.10R
MONTICELLO +   CLOUDY    52  50  93 NE16G24   29.99F FOG
RENSSELAER +   CLOUDY    52  48  87 NE20G28   30.01R
VALPARAISO     CLOUDY    48  47  96 N8        30.08R FOG

$$

LMZ046-743>745-300000-
SOUTHERN LAKE MICHIGAN

STATION/POSITION TIME  TEMP    WIND        PRES    WAVE
                       AIR SEA DIR/SP/G            HT
                 (UTC) (F)     (DEG/KT/KT) (MB)    (FT)
BURNS HARBOR     2240   44      30/ 20/ 26 1019.0R
MICHIGAN CITY    2240   44      20/ 21/ 24   N/A
5NW MICH CITY    2300   43 47                N/A     7

$$

INZ004-005-014>016-021>024-300000-
NORTH CENTRAL INDIANA

CITY           SKY/WX    TMP DP  RH WIND       PRES   REMARKS
GOSHEN         CLOUDY    50  43  77 E15G23    30.10S
LOGANSPORT +   CLOUDY    52  48  87 E15G24    30.02F
PERU/GRISSOM   CLOUDY    52  52 100 E20G29    30.01S
ROCHESTER +    CLOUDY    52  48  87 E14G21    30.06S
SOUTH BEND     CLOUDY    51  45  79 E13       30.09F
WARSAW +       CLOUDY    48  45  87 E15       30.08F

$$

INZ006>009-017-018-025>027-300000-
NORTHEAST INDIANA

CITY           SKY/WX    TMP DP  RH WIND       PRES   REMARKS
ANGOLA *+      CLOUDY    48  36  61 E15       30.13R
AUBURN +       CLOUDY    46  43  87 E15G21    30.11F
FORT WAYNE     CLOUDY    49  45  86 E22       30.08F FOG
HUNTINGTON +   CLOUDY   N/A N/A N/A E13G20    30.07R
KENDALLVILLE + CLOUDY    47  44  88 E10G16    30.12R

$$

INZ028-029-035-036-043>045-051>053-300000-
WEST CENTRAL INDIANA

CITY           SKY/WX    TMP DP  RH WIND       PRES   REMARKS
CRAWFORDSVL +  CLOUDY    60  60 100 NE16G22   29.92S FOG
GREENCASTLE +  CLOUDY    72  63  73 E8        29.90S
LAFAYETTE      CLOUDY    54  53  97 NE22G30   29.95F FOG
TERRE HAUTE    CLOUDY    75  64  68 E9        29.85F

$$

INZ030>032-037>040-046>048-054>057-064-065-300000-
CENTRAL INDIANA

CITY           SKY/WX    TMP DP  RH WIND       PRES   REMARKS
CP ATTERBURY + MOSUNNY   75  63  64 SE7       29.91F
COLUMBUS       PTSUNNY   77  63  61 SE8       29.92F
FISHERS *+     CLOUDY    59  59 100 NE8       29.95
FRANKFORT +    FOG       56  55  95 E17G24    29.99F VSB 1
GREENWOOD *+   CLOUDY    75  63  65 E9        29.92F
INDIANAPOLIS   CLOUDY    74  63  68 E12       29.90F
-EAGLE CREEK   CLOUDY    68  63  84 E10       29.92F
KOKOMO +       CLOUDY    52  50  93 NE23      30.02S FOG
MARION +       CLOUDY    50  48  93 E17G26    30.02F FOG
MT COMFORT *+  CLOUDY    61  59  94 NE12      29.95F
SHELBYVILLE    MOSUNNY   77  63  61 E13       29.91F
ZIONSVILLE +   CLOUDY    56  55  98 E13       29.96S FOG

$$

INZ033-034-041-042-049-050-058-059-300000-
EAST CENTRAL INDIANA

CITY           SKY/WX    TMP DP  RH WIND       PRES   REMARKS
MUNCIE         FOG       54  52  93 E17       30.01F VSB 1/2
RICHMOND +     MOSUNNY   68  63  83 NE12      30.00F

$$

INZ060-061-067>069-081>083-085>088-300000-
SOUTHWEST INDIANA

CITY           SKY/WX    TMP DP  RH WIND       PRES   REMARKS
EVANSVILLE       N/A    N/A N/A N/A MISG      29.84F
WASHINGTON +   CLOUDY    79  66  64 SE10      29.84F

$$

INZ062-063-066-070>080-084-089>092-300000-
SOUTH CENTRAL AND SOUTHEAST INDIANA

CITY           SKY/WX    TMP DP  RH WIND       PRES   REMARKS
BEDFORD +      CLOUDY    79  64  61 SE8       29.88F
BLOOMINGTON    CLOUDY    77  63  61 SE10      29.88F
MADISON *+     SUNNY     79  64  61 E7        29.94F
SEYMOUR +      CLOUDY    81  66  61 SE8       29.90F

$$





USA.gov is the U.S. government's official web portal to all federal, state and local government web resources and services.